Hourly Data Report for July 20, 2021

SWAN RIVER RCS
MANITOBA
Current Station Operator: ECCC - MSC

52°06'53.900" N
101°13'58.500" W
334.80 m
504K80K
71443
WEQ

Download Data

Hourly Data (July 2021)
Hourly Data Report for July 20, 2021
TIME
LST
Temp Definition
°C
Dew Point Definition
°C
Rel Hum Definition
%
Precip. Amount Definition
mm

Wind Dir Definition
10's deg

Wind Spd Definition
km/h
Visibility Definition
km
Stn Press Definition
kPa
Hmdx Definition


Wind Chill Definition


Weather Definition


00:00 12.5 11.0 91 0.0 4 8   98.30     LegendNANA
01:00 13.2 11.7 91 0.0 4 8   98.27     LegendNANA
02:00 12.5 11.2 92 0.0 5 9   98.20     LegendNANA
03:00 11.9 10.9 93 0.0 3 9   98.17     LegendNANA
04:00 11.4 10.3 93 0.0 4 10   98.15     LegendNANA
05:00 12.1 10.4 90 0.0 4 11   98.15     LegendNANA
06:00 13.2 11.7 90 0.0 3 11   98.12     LegendNANA
07:00 15.0 12.8 87 0.0 3 11   98.14     LegendNANA
08:00 16.5 13.8 84 0.0 4 10   98.17     LegendNANA
09:00 17.4 14.1 81 0.0 6 11   98.16     LegendNANA
10:00 18.2 15.1 82 0.0 5 8   98.15     LegendNANA
11:00 19.2 15.2 78 0.0 5 13   98.01     LegendNANA
12:00 18.1 15.1 83 0.0 6 18   97.93     LegendNANA
13:00 19.3 15.4 78 0.0 6 12   97.96     LegendNANA
14:00 20.0 15.7 76 0.0 7 9   97.91     LegendNANA
15:00 20.9 15.8 73 0.0 11 9   97.89 25   LegendNANA
16:00 20.5 15.6 73 0.0 9 10   97.85 25   LegendNANA
17:00 20.1 16.6 81 0.0 7 13   97.79 25   LegendNANA
18:00 19.8 16.4 80 0.0 7 15   97.72     LegendNANA
19:00 19.1 16.8 86 0.0 5 14   97.68     LegendNANA
20:00 18.6 16.7 89 0.0 7 9   97.69     LegendNANA
21:00 17.5 16.5 94 0.0 4 10   97.68     LegendNANA
22:00 16.8 16.2 97 0.0 5 8   97.66     LegendNANA
23:00 15.4 15.0 97 0.0 6 5   97.66     LegendNANA

Notes on Data Quality.

Legend

  • E = Estimated
  • M = Missing
  • NA = Not Available*
  • [empty] = Indicates an unobserved value
Date modified: